Regional Weather Roundup
Issued by NWS Cleveland, OH

Home | Current Version | Previous Version | Text Only | Print | Product List | Glossary Off
Versions: 1 2 3 4 5 6 7 8 9 10 11 12 13 14 15 16 17 18 19 20 21 22 23 24 25 26 27 28 29 30 31 32 33 34 35 36 37 38 39 40 41 42 43 44 45 46 47 48 49 50

000
ASUS41 KCLE 172112
RWRCLE
OHIO REGIONAL WEATHER ROUNDUP
NATIONAL WEATHER SERVICE WILMINGTON, OH
400 PM EST SUN DEC 17 2017

NOTE: "FAIR" INDICATES FEW OR NO CLOUDS BELOW 12,000 FEET WITH NO
SIGNIFICANT WEATHER AND/OR OBSTRUCTIONS TO VISIBILITY.

OHZ001>008-015>018-024>027-034-035-043-044-172200-
   NORTHWEST OHIO

CITY           SKY/WX    TMP DP  RH WIND       PRES   REMARKS
DEFIANCE       CLOUDY    34  31  88 SE3       30.06S FOG
FINDLAY        CLOUDY    40  32  73 S10       30.06F
TOLEDO EXPRESS FAIR      34  32  92 CALM      30.06S FOG
TOLEDO EXEC    FAIR      35  30  82 CALM      30.08F HAZE
LIMA           CLOUDY    39  37  92 S7        30.06F
$$

OHZ009>014-019>023-028>033-038-089-172200-
   NORTHEAST OHIO

CITY           SKY/WX    TMP DP  RH WIND       PRES   REMARKS
CLE-HOPKINS    CLOUDY    39  30  70 S6        30.11S
CLE-LAKEFRONT  MOCLDY    37  29  72 SE6       30.09R
CUY CO. ARPT   CLOUDY    37  30  75 S8        30.09F
LORAIN-ELYRIA  CLOUDY    37  27  67 S6        30.09S
ASHTABULA      FAIR      33  28  81 SE5       30.11S WCI  29
AKRON-CANTON   LGT RAIN  38  29  70 S10       30.10R
WOOSTER        LGT RAIN  35  31  85 SW8       30.11R FOG     WCI  29
MANSFIELD      LGT RAIN  36  33  89 S7        30.09F
YOUNGSTOWN     CLOUDY    35  29  78 SE5       30.10R
$$

OHZ042-051>053-060>062-070>072-077>081-172200-
  SOUTHWEST OHIO

CITY           SKY/WX    TMP DP  RH WIND       PRES   REMARKS
CINC-COVINGTON CLOUDY    45  33  63 S5        30.09S
CINC-LUNKEN    CLOUDY    47  33  58 S8        30.12S
HAMILTON       CLOUDY    47  33  58 CALM      30.11S
DAYTON         CLOUDY    41  38  89 SW7       30.09F
WRIGHT-PAT AFB PTSUNNY   42  38  89 S5        30.09F
DAYTON GENERAL CLOUDY    42  32  67 S5        30.09S
WILMINGTON     CLOUDY    43  33  68 S5        30.10F
$$

OHZ036-037-039>041-045>050-054>059-063>069-073>076-082>088-172200-
  CENTRAL AND SOUTHEAST OHIO

CITY           SKY/WX    TMP DP  RH WIND       PRES   REMARKS
COLUMBUS       LGT RAIN  42  34  73 CALM      30.11F
OSU AIRPORT    LGT RAIN  40  36  86 S3        30.10F
BOLTON FIELD   LGT RAIN  39  36  87 CALM      30.11F
RICKENBACK AFB CLOUDY    41  33  73 S3        30.11F
NEWARK         CLOUDY    40  33  76 CALM      30.11F
MARION         CLOUDY    37  34  89 S9        30.10S FOG
LANCASTER      CLOUDY    42  31  64 S3        30.12F
ZANESVILLE     CLOUDY    40  34  79 SE3       30.13F
NEW PHILLY     MIX PCPN  36  34  92 SE7       30.14R
$$




USA.gov is the U.S. government's official web portal to all federal, state and local government web resources and services.